Effective Sunday, March 17, 2024, the National Weather Service National Data Buoy Center will discontinue its Dial-A-Buoy Interactive Voice Response system. For more information, see Service Change Notice 24-06 (PDF).

Station PACT2 - 8775792 - Packery Channel, TX Image indicating link to RSS feed of recent meteorological observations for station PACT2


Conditions at PACT2 as of
(12:18 am CST)
0618 GMT on 02/23/2024:
     

Click on the graph icon in the table below to see a time series plot of the last five days of that observation.

5-day plot - Wind Direction Wind Direction (WDIR):SSE ( 160 deg true )
5-day plot - Wind Speed Wind Speed (WSPD): 5.1 kts
5-day plot - Wind Gust Wind Gust (GST): 6.0 kts
5-day plot - Atmospheric Pressure Atmospheric Pressure (PRES):29.86 in
5-day plot - Air Temperature Air Temperature (ATMP): 65.5 °F
5-day plot - Water Temperature Water Temperature (WTMP): 65.7 °F
5-day plot - Wind Speed at 10 Meters Wind Speed at 10 meters (WSPD10M): 5.8 kts
5-day plot - Wind Speed at 20 Meters Wind Speed at 20 meters (WSPD20M): 5.8 kts
5-day plot -  Wind Speed, Wind Gust and Atmospheric Pressure Combined plot of Wind Speed, Gust, and Air Pressure
Previous observations
TIME
(CST)
5-day plot - Wind Direction
WDIR
 
5-day plot - Wind Speed
WSPD
kts
5-day plot - Wind Gust
GST
kts
5-day plot - Wave Height
WVHT
ft
5-day plot - Dominant Wave Period
DPD
sec
5-day plot - Average Wave Period
APD
sec
5-day plot - Mean Wave Direction
MWD
 
5-day plot - Atmospheric Pressure
PRES
in
5-day plot - Pressure Tendency
PTDY
in
5-day plot - Air Temperature
ATMP
°F
5-day plot - Water Temperature
WTMP
°F
5-day plot - Dew Point
DEWP
°F
5-day plot - Salinity
SAL
psu
5-day plot - Visibility
VIS
nmi
5-day plot - Tide (above MLLW)
TIDE
ft
2024-02-23 12:12 am S 5.1 6.0----29.86- 65.7 65.7----
2024-02-23 12:06 am S 4.1 5.1----29.86- 65.7 65.7----
2024-02-23 12:00 amSSE 4.1 5.1----29.86+0.01 65.7 65.7----
2024-02-22 11:54 pmSSE 5.1 6.0----29.85- 65.7 65.7----
2024-02-22 11:48 pmSSE 5.1 5.1----29.86- 65.8 65.7----
2024-02-22 11:42 pmSSE 4.1 5.1----29.86- 65.7 65.7----
2024-02-22 11:36 pm S 2.9 4.1----29.86- 65.5 65.7----
2024-02-22 11:30 pmSSE 2.9 5.1----29.86- 65.5 65.8----
2024-02-22 11:24 pmSSE 4.1 6.0----29.85- 65.5 65.8----
2024-02-22 11:18 pm SE 4.1 6.0----29.86- 65.5 66.0----
2024-02-22 11:12 pmSSE 5.1 6.0----29.86- 65.3 66.0----
2024-02-22 11:06 pmSSE 4.1 6.0----29.85- 65.3 66.0----
2024-02-22 11:00 pmSSE 4.1 5.1----29.86+0.04 65.3 66.0----
2024-02-22 10:54 pm SE 5.1 6.0----29.85- 65.3 66.0----
2024-02-22 10:48 pm SE 4.1 5.1----29.86- 65.3 66.0----
2024-02-22 10:42 pm SE 4.1 6.0----29.86- 65.3 66.2----
2024-02-22 10:36 pm SE 5.1 6.0----29.85- 65.3 66.2----
2024-02-22 10:30 pm SE 5.1 7.0----29.85- 65.5 66.2----
2024-02-22 10:24 pm SE 5.1 7.0----29.85- 65.5 66.2----
2024-02-22 10:18 pm SE 6.0 8.9----29.85- 65.5 66.4----
2024-02-22 10:12 pm SE 6.0 8.0----29.85- 65.8 66.6----
2024-02-22 10:06 pm SE 6.0 8.0----29.85- 65.8 66.6----
2024-02-22 10:00 pm SE 5.1 7.0----29.85+0.04 65.8 66.6----
2024-02-22 09:54 pm SE 5.1 8.0----29.85- 66.0 66.7----
2024-02-22 09:48 pm SE 5.1 7.0----29.85- 65.8 66.7----
2024-02-22 09:42 pm SE 6.0 7.0----29.85- 65.8 66.7----
2024-02-22 09:36 pm SE 6.0 7.0----29.85- 66.0 66.7----
2024-02-22 09:30 pm SE 6.0 8.0----29.85- 66.0 66.9----
2024-02-22 09:24 pm SE 5.1 7.0----29.85- 65.8 66.9----
2024-02-22 09:18 pm SE 5.1 7.0----29.84- 65.7 66.9----
2024-02-22 09:12 pm SE 4.1 8.0----29.85- 65.7 66.9----
2024-02-22 09:06 pm SE 5.1 7.0----29.85- 65.8 67.1----
2024-02-22 09:00 pm SE 4.1 6.0----29.84+0.04 65.8 67.1----
2024-02-22 08:54 pm SE 4.1 6.0----29.84- 66.0 67.1----
2024-02-22 08:48 pm SE 5.1 7.0----29.84- 66.0 67.1----
2024-02-22 08:42 pm SE 6.0 7.0----29.84- 66.2 67.1----
2024-02-22 08:36 pm SE 5.1 7.0----29.83- 66.4 67.1----
2024-02-22 08:30 pm SE 6.0 8.9----29.83- 66.4 67.1----
2024-02-22 08:24 pmESE 7.0 8.9----29.82- 66.6 67.3----
2024-02-22 08:18 pmESE 6.0 8.9----29.82- 66.6 67.3----
2024-02-22 08:12 pmESE 7.0 9.9----29.82- 66.6 67.3----
2024-02-22 08:06 pmESE 7.0 8.0----29.82- 66.6 67.5----
2024-02-22 08:00 pmESE 5.1 7.0----29.82+0.03 66.7 67.5----
2024-02-22 07:54 pmESE 5.1 7.0----29.82- 66.7 67.5----
2024-02-22 07:48 pmESE 5.1 8.0----29.82- 66.7 67.5----
2024-02-22 07:42 pmESE 6.0 8.0----29.81- 66.7 67.5----
2024-02-22 07:36 pmESE 6.0 8.0----29.81- 66.9 67.5----
2024-02-22 07:30 pmESE 6.0 8.0----29.81- 67.1 67.5----
2024-02-22 07:24 pmESE 6.0 8.0----29.81- 67.3 67.6----
2024-02-22 07:18 pmESE 5.1 6.0----29.81- 67.3 67.6----
2024-02-22 07:12 pmESE 4.1 5.1----29.82- 67.3 67.6----
2024-02-22 07:06 pmESE 4.1 5.1----29.81- 67.3 67.6----
2024-02-22 07:00 pmESE 4.1 6.0----29.81+0.01 67.3 67.6----
2024-02-22 06:54 pmESE 5.1 6.0----29.80- 67.3 67.6----
2024-02-22 06:48 pmESE 6.0 7.0----29.80- 67.3 67.6----
2024-02-22 06:42 pmESE 5.1 6.0----29.80- 67.5 67.6----
2024-02-22 06:36 pm E 5.1 6.0----29.80- 67.6 67.6----
2024-02-22 06:30 pm E 5.1 6.0----29.80- 68.0 67.6----
2024-02-22 06:24 pm E 5.1 6.0----29.81- 68.2 67.6----
2024-02-22 06:18 pm E 5.1 6.0----29.80- 68.4 67.6----
2024-02-22 06:12 pmESE 5.1 7.0----29.80- 68.9 67.8----
2024-02-22 06:06 pmESE 6.0 7.0----29.80- 68.9 68.0----
2024-02-22 06:00 pmESE 6.0 7.0----29.80-0.01 69.3 68.0----
2024-02-22 05:54 pmESE 6.0 8.0----29.80- 69.4 68.0----
2024-02-22 05:48 pmESE 8.0 8.9----29.80- 69.3 68.2----
2024-02-22 05:42 pmESE 6.0 8.0----29.80- 69.8 68.2----
2024-02-22 05:36 pmESE 5.1 7.0----29.80- 70.0 68.2----
2024-02-22 05:30 pmESE 5.1 8.0----29.80-- 68.2----
2024-02-22 05:24 pmESE 6.0 8.0----29.80-- 68.2----
2024-02-22 05:18 pmESE 7.0 8.9----29.80- 70.2 68.4----
2024-02-22 05:12 pmESE 7.0 8.0----29.79- 70.2 68.4----
2024-02-22 05:00 pmESE 7.0 8.9----29.79-0.03- 68.5----
2024-02-22 04:54 pmESE 6.0 8.0----29.79-- 68.5----
2024-02-22 04:48 pmESE 6.0 8.9----29.79- 71.1 68.7----
2024-02-22 04:42 pm E 6.0 8.0----29.79- 70.9 68.7----
2024-02-22 04:36 pm E 6.0 7.0----29.79- 70.7 68.7----
2024-02-22 04:30 pm E 6.0 8.0----29.79- 70.9 68.7----
2024-02-22 04:24 pm E 6.0 7.0----29.79- 70.7 68.7----
2024-02-22 04:18 pm E 7.0 8.0----29.79- 71.1 68.7----
2024-02-22 04:12 pm E 7.0 8.0----29.79- 71.4 68.7----
2024-02-22 04:06 pm E 6.0 8.0----29.79- 71.4 68.7----
2024-02-22 04:00 pm E 5.1 8.0----29.80-0.06 71.8 68.7----
2024-02-22 03:54 pm E 7.0 8.0----29.79- 71.8 68.7----
2024-02-22 03:48 pm E 6.0 7.0----29.80- 71.8 68.7----
2024-02-22 03:42 pm E 5.1 6.0----29.80- 71.4 68.7----
2024-02-22 03:36 pm E 5.1 7.0----29.80- 71.2 68.7----
2024-02-22 03:30 pmENE 5.1 7.0----29.80- 71.1 68.7----
2024-02-22 03:24 pm E 6.0 8.0----29.80- 70.9 68.7----
2024-02-22 03:18 pm E 5.1 7.0----29.80- 70.9 68.7----
2024-02-22 03:12 pmENE 5.1 6.0----29.80- 70.3 68.7----
2024-02-22 03:06 pmENE 5.1 6.0----29.81- 70.2 68.7----
2024-02-22 03:00 pmENE 5.1 6.0----29.81-0.06 69.6 68.7----
2024-02-22 02:54 pmENE 5.1 5.1----29.81- 69.4 68.7----
2024-02-22 02:48 pm NE 5.1 6.0----29.82- 69.3 68.5----
2024-02-22 02:42 pm NE 5.1 6.0----29.82- 68.9 68.5----
2024-02-22 02:36 pmENE 5.1 6.0----29.82- 68.7 68.5----
2024-02-22 02:30 pmENE 5.1 7.0----29.82- 68.7 68.5----
2024-02-22 02:24 pm NE 7.0 8.0----29.82- 68.5 68.4----
2024-02-22 02:18 pmENE 6.0 7.0----29.82- 69.1 68.4----
2024-02-22 02:12 pm E 6.0 8.0----29.82- 69.3 68.4----
2024-02-22 02:06 pmENE 7.0 7.0----29.82- 69.4 68.2----
2024-02-22 02:00 pmENE 6.0 7.0----29.83-0.04 69.4 68.2----
2024-02-22 01:54 pmENE 5.1 6.0----29.83- 69.8 68.0----
2024-02-22 01:48 pm E 5.1 7.0----29.83- 69.3 68.0----
2024-02-22 01:42 pm E 7.0 8.9----29.83- 69.1 68.0----
2024-02-22 01:36 pm E 6.0 7.0----29.83- 70.2 67.8----
2024-02-22 01:30 pmESE 6.0 8.0----29.84- 69.6 67.8----
2024-02-22 01:24 pmESE 7.0 8.0----29.84- 69.6 67.8----
2024-02-22 01:18 pm E 7.0 8.9----29.84- 69.1 67.6----
2024-02-22 01:12 pm E 7.0 8.0----29.85- 69.3 67.6----
2024-02-22 01:06 pm E 6.0 8.0----29.85- 69.8 67.6----
2024-02-22 01:00 pm E 5.1 7.0----29.86-0.04 69.6 67.5----
2024-02-22 12:54 pm E 6.0 8.0----29.86- 69.6 67.5----
2024-02-22 12:48 pm E 7.0 8.9----29.85- 70.0 67.5----
2024-02-22 12:42 pmESE 6.0 7.0----29.86- 70.5 67.3----
2024-02-22 12:36 pmESE 5.1 8.9----29.86- 70.7 67.3----
2024-02-22 12:30 pmESE 7.0 8.9----29.86- 70.5 67.3----
2024-02-22 12:24 pmESE 5.1 6.0----29.87- 71.6 67.3----
2024-02-22 12:18 pmSSE 6.0 6.0----29.87- 71.6 67.1----
2024-02-22 12:12 pm S 5.1 7.0----29.87- 71.8 67.1----
2024-02-22 12:06 pm S 4.1 6.0----29.87- 71.8 67.1----
2024-02-22 12:00 pmSSE 4.1 8.0----29.88-0.03 71.8 67.1----
2024-02-22 11:54 am S 5.1 8.0----29.87- 72.5 66.9----
2024-02-22 11:48 am SE 7.0 8.9----29.87- 71.2 66.9----
2024-02-22 11:42 am SE 7.0 8.9----29.87- 71.1 66.9----
2024-02-22 11:36 am SE 6.0 9.9----29.87- 71.1 66.9----
2024-02-22 11:30 amESE 8.0 11.1----29.87- 69.8 66.9----
2024-02-22 11:24 am SE 7.0 9.9----29.87- 70.2 66.7----
2024-02-22 11:18 am SE 8.0 11.1----29.87- 70.2 66.7----
2024-02-22 11:12 amESE 9.9 12.0----29.87- 69.4 66.7----
2024-02-22 11:06 am SE 9.9 12.0----29.87- 69.8 66.7----
2024-02-22 11:00 amESE 8.9 12.0----29.87-0.02 70.3 66.6----
2024-02-22 10:54 am SE 7.0 11.1----29.88- 69.8 66.6----
2024-02-22 10:48 amESE 8.9 12.0----29.88- 68.9 66.6----
2024-02-22 10:42 amESE 8.9 11.1----29.88- 68.7 66.6----
2024-02-22 10:36 amESE 7.0 8.9----29.89- 68.2 66.6----
2024-02-22 10:30 am SE 8.0 12.0----29.88- 68.5 66.6----
2024-02-22 10:24 amESE 9.9 11.1----29.88- 68.2 66.6----
2024-02-22 10:18 amESE 8.0 9.9----29.89- 68.0 66.6----
2024-02-22 10:12 amESE 7.0 8.9----29.89- 68.0 66.6----
2024-02-22 10:06 amESE 5.1 7.0----29.90- 68.2 66.4----
2024-02-22 10:00 amESE 6.0 7.0----29.90+0.03 68.4 66.4----
2024-02-22 09:54 am SE 5.1 6.0----29.90- 68.4 66.4----
2024-02-22 09:48 amESE 5.1 8.9----29.90-------
2024-02-22 09:42 amESE 5.1 6.0----29.90-------
2024-02-22 09:36 amESE 2.9 4.1----29.91-------
2024-02-22 09:30 am SE 2.9 4.1----29.91- 67.8 66.4----
2024-02-22 09:24 am SE 2.9 4.1----29.91- 67.5 66.4----
2024-02-22 09:18 amSSE 1.9 4.1----29.92- 67.5 66.4----
2024-02-22 09:12 amSSE 1.0 4.1----29.91- 67.5 66.4----
2024-02-22 09:06 amSSE 2.9 5.1----29.90- 67.3 66.4----
2024-02-22 09:00 amSSE 2.9 5.1----29.91+0.05 67.1 66.4----
2024-02-22 08:54 am SE 4.1 5.1----29.90- 66.7 66.4----
2024-02-22 08:48 amSSE 4.1 4.1----29.90- 66.6 66.4----
2024-02-22 08:42 am S 2.9 4.1----29.91- 66.4 66.4----
2024-02-22 08:36 amSSE 2.9 4.1----29.91- 66.2 66.4----
2024-02-22 08:30 amSSE 1.9 2.9----29.90- 66.0 66.4----
2024-02-22 08:24 amSSE 4.1 6.0----29.89- 66.0 66.4----
2024-02-22 08:18 amSSE 5.1 6.0----29.89- 65.7 66.4----
2024-02-22 08:12 am S 5.1 6.0----29.89- 65.7 66.4----
2024-02-22 08:06 amSSE 4.1 5.1----29.89- 65.7 66.4----
2024-02-22 08:00 amSSE 2.9 5.1----29.89+0.03 65.7 66.4----
2024-02-22 07:54 amSSE 4.1 5.1----29.89- 65.5 66.4----
2024-02-22 07:48 amSSE 4.1 6.0----29.89- 65.3 66.2----
2024-02-22 07:42 amSSE 5.1 6.0----29.88- 65.3 66.2----
2024-02-22 07:36 am S 5.1 7.0----29.88- 65.1 66.2----
2024-02-22 07:30 amSSE 6.0 8.0----29.87- 65.1 66.2----
2024-02-22 07:24 amSSE 5.1 7.0----29.87- 64.9 66.2----
2024-02-22 07:18 amSSE 5.1 7.0----29.87- 64.9 66.2----
2024-02-22 07:12 amSSE 5.1 7.0----29.87- 64.9 66.2----
2024-02-22 07:06 amSSE 5.1 8.0----29.87- 64.9 66.2----
2024-02-22 07:00 amSSE 5.1 8.9----29.87-0.01 64.9 66.2----
2024-02-22 06:54 am SE 7.0 8.9----29.86- 64.9 66.2----
2024-02-22 06:48 am SE 7.0 11.1----29.85- 64.8 66.2----
2024-02-22 06:42 am SE 7.0 11.1----29.85- 64.9 66.2----
2024-02-22 06:36 am SE 8.0 11.1----29.85- 64.8 66.2----
2024-02-22 06:30 am SE 8.9 13.0----29.85- 64.8 66.2----
2024-02-22 06:24 am SE 8.0 11.1----29.85- 64.8 66.2----
2024-02-22 06:18 am SE 8.0 11.1----29.85- 64.8 66.0----
2024-02-22 06:12 am SE 7.0 12.0----29.85- 64.8 66.0----
2024-02-22 06:06 am SE 8.9 12.0----29.85- 64.9 66.0----
2024-02-22 06:00 am SE 8.0 12.0----29.85-0.03 64.9 66.0----
2024-02-22 05:54 am SE 8.0 11.1----29.86- 64.9 66.0----
2024-02-22 05:48 am SE 8.0 11.1----29.85- 64.9 66.0----
2024-02-22 05:42 am SE 8.0 11.1----29.86- 64.9 66.0----
2024-02-22 05:36 am SE 7.0 9.9----29.86- 64.9 66.0----
2024-02-22 05:30 am SE 7.0 9.9----29.86- 64.9 66.0----
2024-02-22 05:24 amSSE 7.0 11.1----29.86- 64.9 66.0----
2024-02-22 05:18 am SE 8.0 11.1----29.86- 65.1 66.0----
2024-02-22 05:12 am SE 8.0 12.0----29.86- 64.9 66.0----
2024-02-22 05:06 amSSE 8.0 11.1----29.86- 64.9 66.0----
2024-02-22 05:00 amSSE 8.0 11.1----29.86-0.01- 66.0----
2024-02-22 04:54 amSSE 8.0 9.9----29.86-- 66.0----
2024-02-22 04:48 amSSE 8.0 11.1----29.85- 64.9 66.0----
2024-02-22 04:42 amSSE 8.0 11.1----29.86- 64.9 66.0----
2024-02-22 04:36 amSSE 8.0 9.9----29.86- 65.1 66.0----
2024-02-22 04:30 am SE 7.0 9.9----29.86- 65.1 66.0----
2024-02-22 04:24 am SE 6.0 8.9----29.87- 64.9 65.8----
2024-02-22 04:18 amSSE 7.0 8.9----29.87- 65.1 65.8----
2024-02-22 04:12 amSSE 6.0 8.9----29.87- 65.1 65.8----
2024-02-22 04:06 amSSE 6.0 8.0----29.88- 65.1 65.8----
2024-02-22 04:00 amSSE 6.0 7.0----29.88-0.01 65.3 65.8----
2024-02-22 03:54 amSSE 5.1 8.0----29.88- 65.3 65.8----
2024-02-22 03:48 amSSE 6.0 8.0----29.88- 65.5 65.8----
2024-02-22 03:42 amSSE 6.0 8.9----29.88- 65.5 65.7----
2024-02-22 03:36 am SE 6.0 11.1----29.88- 65.7 65.7----
2024-02-22 03:30 am SE 7.0 9.9----29.88- 65.7 65.7----
2024-02-22 03:24 amSSE 7.0 9.9----29.88- 65.8 65.7----
2024-02-22 03:18 amSSE 7.0 11.1----29.88- 65.7 65.7----
2024-02-22 03:12 amSSE 8.0 11.1----29.88- 65.8 65.7----
2024-02-22 03:06 am SE 7.0 13.0----29.88- 65.8 65.5----
2024-02-22 03:00 amSSE 8.0 12.0----29.88-0.05 65.8 65.5----
2024-02-22 02:54 amSSE 8.0 12.0----29.88- 66.0 65.3----
2024-02-22 02:48 amSSE 9.9 13.0----29.87- 66.0 65.3----
2024-02-22 02:42 amSSE 9.9 14.0----29.87- 65.8 65.3----
2024-02-22 02:36 amSSE 12.0 15.9----29.87- 66.2 65.1----
2024-02-22 02:30 amSSE 12.0 15.9----29.87- 66.2 65.1----
2024-02-22 02:24 am SE 9.9 17.1----29.87- 66.0 64.9----
2024-02-22 02:18 amSSE 12.0 17.1----29.87- 66.2 64.9----
2024-02-22 02:12 am SE 12.0 15.9----29.87- 66.0 64.8----
2024-02-22 02:06 am SE 13.0 19.0----29.87- 66.4 64.8----
2024-02-22 02:00 am SE 12.0 18.1----29.88-0.08 66.4 64.6----
2024-02-22 01:54 am SE 12.0 19.0----29.88- 66.6 64.6----
2024-02-22 01:48 am SE 15.0 24.1----29.87- 66.7 64.4----
2024-02-22 01:42 am SE 15.0 20.0----29.87- 66.7 64.4----
2024-02-22 01:36 am SE 15.0 22.9----29.87- 66.9 64.4----
2024-02-22 01:30 am SE 15.0 20.0----29.87- 66.7 64.4----
2024-02-22 01:24 am SE 17.1 24.1----29.88- 66.9 64.4----
2024-02-22 01:18 am SE 15.9 20.0----29.88- 66.9 64.2----
2024-02-22 01:12 am SE 15.0 19.0----29.88- 66.7 64.2----
2024-02-22 01:06 am SE 15.0 21.0----29.89- 66.7 64.2----
2024-02-22 01:00 am SE 13.0 18.1----29.90-0.08 66.7 64.2----
2024-02-22 12:54 am SE 13.0 19.0----29.90- 66.7 64.2----
2024-02-22 12:48 am SE 13.0 19.0----29.90- 66.7 64.2----
2024-02-22 12:42 am SE 13.0 17.1----29.91- 66.7 64.2----
2024-02-22 12:36 am SE 13.0 24.1----29.91- 66.7 64.2----
2024-02-22 12:30 am SE 13.0 19.0----29.91- 66.7 64.2----
2024-02-22 12:24 am SE 13.0 19.0----29.92- 66.7 64.2----
2024-02-22 12:18 am SE 13.0 19.0----29.92- 66.7 64.2----
2024-02-22 12:12 am SE 12.0 18.1----29.92- 66.9 64.4----
2024-02-22 12:06 am SE 11.1 18.1----29.93- 66.7 64.4----
2024-02-22 12:00 am SE 13.0 19.0----29.93-0.06 66.7 64.4----
2024-02-21 11:54 pm SE 12.0 15.9----29.93- 66.7 64.4----